Regional Weather Roundup
Issued by NWS

Home | Current Version | Previous Version | Graphics & Text | Print | Product List | Glossary On
Versions: 1 2 3 4 5 6 7 8 9 10 11 12 13 14 15 16 17 18 19 20 21 22 23 24 25 26 27 28 29 30 31 32 33 34 35 36 37 38 39 40 41 42 43 44 45 46 47 48 49 50
000
ASUS45 KTFX 290119
RWRMT
MONTANA HOURLY WEATHER ROUNDUP
NATIONAL WEATHER SERVICE GREAT FALLS MT
619 PM MST SUN DEC 28 2014

NOTE: "FAIR" INDICATES FEW OR NO CLOUDS BELOW 12000 FEET WITH NO
SIGNIFICANT WEATHER AND/OR OBSTRUCTIONS TO VISIBILITY.

* THESE STATIONS ARE NOT UNDER NWS QUALITY CONTROL. THEY DO NOT
   REPORT WEATHER SUCH AS PRECIPITATION OR FOG.

MTZ001>007-043-290200-
WEST OF THE DIVIDE
CITY           SKY/WX    TMP DP  RH WIND       PRES   REMARKS
KALISPELL      CLOUDY    21  12  68 NE29G37   30.16R WCI   3
MISSOULA       CLOUDY    25  16  69 E13       30.11R WCI  13
BUTTE          LGT SNOW  12   9  88 NW12G20   30.02R VSB 1 1/2 WCI  -2
MULLAN PASS    LGT SNOW  21  18  88 CALM      29.91R VSB 2
* ESSEX        N/A       14   4  64 E5G14      N/A   WCI   6
* HAMILTON APT CLOUDY    25  21  85 N13       30.04R WCI  13
* LINCOLN      N/A       10   2  70 E12G22     N/A   WCI  -5
* LOOKOUT PASS N/A       24  23  96 N2         N/A
* POLSON       N/A       21  18  88 NW1        N/A
* RONAN APT    CLOUDY    25  23  92 E6         N/A   WCI  18
* SEELEY LAKE  N/A       17   9  71 S3G9       N/A
* THOMP F APT  MOCLDY    13  10  88 N/A        N/A
$$

MTZ008-052>055-290200-
SOUTHWEST MONTANA
CITY           SKY/WX    TMP DP  RH WIND       PRES   REMARKS
BOZEMAN        LGT SNOW  18  12  77 SW14      30.05R VSB 1 1/4 WCI   4
DILLON         LGT SNOW  16  12  84 NE20      29.97R WCI  -1
* W YELLOWSTON CLOUDY    15  12  88 SW4G9      N/A
* THREE FORKS  CLOUDY    18  16  92 N15G20     N/A   WCI   4
* BOULDER HILL N/A        7   2  80 N20G27     N/A   WCI -13
* MONIDA PASS  N/A       11   9  92 SE9        N/A   WCI  -2
* RAYNOLDS PAS N/A       13  -1  53 S12        N/A   WCI  -1
* WHITEHALL    N/A       16   8  71 NE14G24    N/A   WCI   2
* WISE RIVER   N/A       17  10  74 SE12G22    N/A   WCI   4
$$

MTZ009>010-012-014-046-048-049-054-290200-
EAST SLOPES AND CENTRAL MONTANA
CITY           SKY/WX    TMP DP  RH WIND       PRES   REMARKS
CUT BANK       LGT SNOW   9   5  84 N20       30.30R VSB 1    WCI -10
GREAT FALLS    LGT SNOW  10   7  88 N16       30.26R WCI  -7
HELENA         HAZE      16   7  67 NW15      30.21R WCI   1
MALMSTROM AFB  LGT SNOW  10   9  96 N10       30.30R WCI  -4
* CONRAD       MOCLDY    10   7  88 NW9        N/A   WCI  -3
* DEARBORN     N/A       14   8  77 S4G11      N/A
* EAST GLACIER N/A        7   2  80 E10        N/A   WCI  -7
* MONARCH      N/A        7   2  80 NW11       N/A   WCI  -8
* PENDROY      N/A        8   6  91 N20G26     N/A   WCI -12
* ROGERS PASS  N/A        5   2  87 SE4G13     N/A
* SWEET GRASS  N/A        5   3  91 N/A        N/A
* WHITE SULPH  N/A        8   3  80 NW10G15    N/A   WCI  -6
$$

MTZ011-013-016-021-035-040-045-047-050-051-290200-
NORTH CENTRAL MONTANA
CITY           SKY/WX    TMP DP  RH WIND       PRES   REMARKS
HAVRE          LGT SNOW  14   9  80 NE10      30.34R VSB 3    WCI   1
LEWISTOWN      LGT SNOW  12  10  92 NW12      30.18R VSB 2 1/2 WCI  -2
* N BAR RANCH  HAZE      12   7  80 N10       30.15R WCI  -1
* CHINOOK      CLOUDY    12   7  80 NE5       30.37R WCI   4
* CHESTER      N/A       13   5  70 NE13       N/A   WCI  -2
* DENTON       N/A       14  11  88 W21G26     N/A   WCI  -4
* JUDITH GAP   N/A       11   9  92 VRB26      N/A   WCI -10
* LOMA         N/A       14  10  84 NW16       N/A   WCI  -2
$$

MTZ017>020-022>027-061-062-290200-
NORTHEAST MONTANA
CITY           SKY/WX    TMP DP  RH WIND       PRES   REMARKS
GLASGOW        CLOUDY     9   1  70 NE14      30.32R WCI  -7
GLENDIVE       CLOUDY    10   7  88 NE15      30.24R WCI  -7
JORDAN         CLOUDY    12   9  88 NE9       30.24R
SIDNEY         CLOUDY     9   1  70 N12       30.34R WCI  -6
WOLF POINT     CLOUDY    10   0  64 NE14      30.35R WCI  -6
* BEAVER HILL  N/A       12   8  84 NE19       N/A   WCI  -6
* CIRCLE       N/A        9   5  84 NE7G14     N/A   WCI  -2
* LINDSAY DVD  N/A        9   7  91 NE12G17    N/A   WCI  -6
* NAVAJO       N/A       -3  -9  75 NE12       N/A   WCI -21
* PLENTYWOOD A MOCLDY    -4 -11  71 N10       30.36R WCI -21
* POPLAR APT   MOCLDY     7  -2  66 N/A       30.35R
* SACO         N/A       10   1  67 VRB16      N/A   WCI  -7
$$

MTZ028>042-056>058-290200-
SOUTHCENTRAL AND SOUTHEAST MONTANA
CITY           SKY/WX    TMP DP  RH WIND       PRES   REMARKS
BAKER          LGT SNOW  16  12  84 E16       30.12R VSB 1    WCI   1
BILLINGS       LGT SNOW  18  12  77 N18G25    30.13R VSB 2 1/2 WCI   2
LIVINGSTON     LGT SNOW  16  10  77 N9        30.08R VSB 2 1/2 WCI   5
MILES CITY     LGT SNOW  18  12  77 NE24      30.14R VSB 2 1/2
* BIG TIMBER A CLOUDY    16  12  84 NE10      30.12R VSB 1    WCI   4
* FORSYTH APT  CLOUDY    19  18  96 N13       30.15R VSB 1 1/4 WCI   6
* LAUREL APT   CLOUDY    18   9  68 N9         N/A   WCI   7
* ROUNDUP APT  CLOUDY    16   9  74 S15G21     N/A   WCI   1
* ALZADA       N/A       21  16  81 E6         N/A   WCI  13
* HYSHAM       N/A       16  12  84 NE7G14     N/A   WCI   6
* REED POINT   N/A       19  16  88 W4         N/A
* ROSCOE HILL  N/A       14  10  84 NW7        N/A   WCI   4
$$

REGIONAL REPORTS...DAKOTAS
CITY           SKY/WX    TMP DP  RH WIND       PRES   REMARKS
WILLISTON      CLOUDY     5  -2  72 N14       30.34R WCI -12
DICKINSON      LGT SNOW  10   5  80 NE15      30.19R VSB 1 1/4 WCI  -7
BEACH          LGT SNOW  10   9  96 NE10      30.20R VSB 3    WCI  -4
CROSBY         CLEAR     -2  -8  75 NW12      30.40R WCI -20
WATFORD CITY   CLOUDY     7   1  76 NE10      30.30R WCI  -7
BISMARCK       CLOUDY     3   0  87 NE12      30.33R WCI -14
GRAND FORKS    CLEAR     -8 -11  86 N5        30.44R WCI -20
FARGO          CLEAR      0  -8  68 N13       30.40R WCI -18
BUFFALO SD     MOCLDY    18  14  84 NE12      30.02R WCI   5
RAPID CITY     LGT SNOW  18  14  84 NE8       30.05R VSB 1 1/2 WCI   8
$$

REGIONAL REPORTS...WYOMING/IDAHO/WASHINGTON
CITY           SKY/WX    TMP DP  RH WIND       PRES   REMARKS
GILLETTE       LGT SNOW  21  16  81 NE6       29.95R WCI  13
SHERIDAN       LGT SNOW  23  18  81 NW16      30.01R WCI  10
CODY           CLOUDY    21  18  88 N15       29.98R WCI   7
YELLOWSTONE LA PTCLDY     9   5  84 W5        29.88R
SALMON         CLOUDY    19  16  88 CALM      30.03R
MULLAN PASS    LGT SNOW  21  18  88 CALM      29.91S VSB 2
SAND POINT     CLOUDY    30  30 100 NE13      30.11R WCI  20
SPOKANE        LGT SNOW  28  27  96 SE3       30.08S
$$

REGIONAL REPORTS...ALBERTA
CITY           SKY/WX    TMP DP  RH WIND       PRES   REMARKS
CALGARY        LGT SNOW  10   7  88 N12       30.40R VSB 3    WCI  -5
LETHBRIDGE     LGT SNOW   9   7  91 N7        30.40R WCI  -2
MEDICINE HAT   LGT SNOW   5   1  83 NE10      30.45R WCI -10
EDMONTON       LGT SNOW   9   3  76 N7        30.56R WCI  -2
WATERTON GATE  N/A        9   5  84 NE3        N/A
CARDSTON       N/A        9   9 100 NW10       N/A   WCI  -5
MILK RIVER     N/A        5   3  91 N14        N/A   WCI -12
$$

REGIONAL REPORTS...SASKATCHEWAN
CITY           SKY/WX    TMP DP  RH WIND       PRES   REMARKS
SWIFT CURRENT  CLEAR     -8 -11  86 N6        30.40R WCI -21
REGINA         N/A      -13 -18  78 N8        30.46R WCI -30
VAL MARIE      N/A        3  -2  79 NE16       N/A   WCI -16
ASSINIBOIA     N/A       -9 -13  82 N5         N/A   WCI -21

$$




USA.gov is the U.S. government's official web portal to all federal, state and local government web resources and services.